Flag for Poland Weather past 2 weeks in Gdańsk, Poland

Now
32 °F

Clear.


Feels Like: 26 °F
Forecast: 33 / 49 °F
Wind: 7 mph from South

Location: Gdansk-Rebiechowo

Current Time: Oct 25, 2014 at 2:59:34 AM

Latest Report: Oct 25, 2014 at 2:30 AM


Visibility: 10 mi

Pressure: 30.30 "Hg

Humidity: 69%

Dew point: 23 °F

Location of GdańskLocation

Historic Weather in Gdańsk — Graph

°F

Gdańsk temperature yesterday

Maximum temperature yesterday: 45 °F (at 2:00 PM)
Minimum temperature yesterday: 34 °F (at 9:30 PM)
Average temperature yesterday: 38 °F

Past Weeks' High & Low Weather Summary

 TemperatureHumidityPressure
High66 °F (Oct 10, 1:30 PM)100% (Oct 11, 8:00 AM)30.33 "Hg (Oct 11, 8:00 AM)
Low32 °F (Oct 25, 12:00 AM)52% (Oct 10, 2:00 PM)29.53 "Hg (Oct 22, 2:00 AM)
Average51 °F90%29.90 "Hg
* Reported Oct 10 2:00 AM — Oct 25 2:00 AM, Gdańsk, Weather by CustomWeather, © 2014

Note: Actual official high and low records may vary slightly from our data, if they occured in-between our weather recording intervals... More about our weather records

Advertising

Gdańsk weather history for previous 24 hours

 ConditionsComfort  
Time TempWeatherWind HumidityBarometerVisibility
2:00 AM
Oct 25
32 °FPassing clouds.8 mph69%30.30 "HgN/A
1:30 AM32 °FPassing clouds.6 mph64%30.30 "HgN/A
1:00 AM32 °FPassing clouds.8 mph64%30.30 "HgN/A
12:30 AM32 °FPassing clouds.8 mph64%30.33 "HgN/A
12:00 AM32 °FPassing clouds.7 mph64%30.33 "HgN/A
11:30 PM
Oct 24
34 °FPassing clouds.8 mph60%30.30 "HgN/A
11:00 PM34 °FPassing clouds.7 mph60%30.33 "HgN/A
10:30 PM34 °FPassing clouds.6 mph65%30.33 "HgN/A
10:00 PM34 °FPassing clouds.7 mph65%30.33 "HgN/A
9:30 PM34 °FPassing clouds.6 mph70%30.33 "HgN/A
9:00 PM36 °FPassing clouds.8 mph65%30.33 "HgN/A
8:30 PM36 °FPassing clouds.8 mph65%30.33 "HgN/A
8:00 PM36 °FPassing clouds.7 mph70%30.30 "HgN/A
7:30 PM37 °FPassing clouds.6 mph65%30.33 "HgN/A
7:00 PM37 °FPassing clouds.6 mph70%30.30 "HgN/A
6:30 PM37 °FPassing clouds.5 mph70%30.30 "HgN/A
6:00 PM37 °FPassing clouds.3 mph70%30.30 "HgN/A
5:30 PM39 °FPassing clouds.5 mph65%30.30 "HgN/A
5:00 PM39 °FPassing clouds.7 mph65%30.30 "HgN/A
4:30 PM41 °FPassing clouds.6 mph61%30.30 "HgN/A
4:00 PM41 °FPassing clouds.8 mph61%30.30 "HgN/A
3:30 PM43 °FPassing clouds.8 mph61%30.30 "HgN/A
3:00 PM43 °FPassing clouds.8 mph57%30.33 "HgN/A
2:30 PM43 °FPassing clouds.8 mph61%30.33 "HgN/A
2:00 PM45 °FPassing clouds.7 mph57%30.33 "HgN/A
1:30 PM43 °FPassing clouds.7 mph57%30.33 "HgN/A
1:00 PM43 °FPassing clouds.8 mph57%30.33 "HgN/A
12:30 PM43 °FPassing clouds.8 mph61%30.33 "HgN/A
12:00 PM41 °FPassing clouds.9 mph61%30.33 "HgN/A
11:30 AM41 °FPassing clouds.8 mph61%30.33 "HgN/A
11:00 AM39 °FPassing clouds.8 mph65%30.33 "HgN/A
10:30 AM37 °FPartly sunny.8 mph70%30.33 "HgN/A
10:00 AM36 °FPartly sunny.7 mph75%30.33 "HgN/A
9:30 AM36 °FPartly sunny.7 mph75%30.33 "HgN/A
9:00 AM36 °FPartly sunny.7 mph75%30.33 "HgN/A
8:30 AM36 °FPassing clouds.7 mph75%30.33 "HgN/A
8:00 AM36 °FPassing clouds.7 mph75%30.33 "HgN/A
7:30 AM36 °FPassing clouds.5 mph75%30.33 "HgN/A
7:00 AM36 °FPassing clouds.6 mph75%30.33 "HgN/A
6:30 AM36 °FPassing clouds.6 mph75%30.33 "HgN/A
6:00 AM36 °FPassing clouds.6 mph75%30.33 "HgN/A
5:30 AM36 °FPassing clouds.6 mph81%30.30 "HgN/A
5:00 AM36 °FPassing clouds.5 mph81%30.30 "HgN/A
4:30 AM36 °FPassing clouds.6 mph81%30.30 "HgN/A
4:00 AM36 °FPassing clouds.7 mph81%30.30 "HgN/A
3:30 AM36 °FPassing clouds.8 mph81%30.30 "HgN/A
3:00 AM36 °FPassing clouds.8 mph87%30.30 "HgN/A
2:30 AM37 °FPassing clouds.7 mph81%30.30 "HgN/A
2:00 AM37 °FPassing clouds.6 mph87%30.30 "HgN/A
Weather by CustomWeather, © 2014

See weather overviewHow to use our weather pages